SCP
0 0 0 0 0 0 0 0 0 0 0 0 0 0 0 0 0 0 0 0 0 0 0 0 0 0 0 0 0 0 0 0 0 0 0 0 1 1
0 0 0 0 0 0 0 0 0 0 0 0 0 0 0 0 0 0 0 0 0 0 0 0 0 0 0 0 0 0 0 0 0 0 0 0 0 1
0 0 0 0 0 0 0 0 0 0 0 0 0 0 0 0 0 0 0 0 0 0 0 0 0 0 0 0 0 0 0 0 0 0 0 0 0 0
0 0 0 0 0 0 0 0 0 0 0 0 0 0 0 0 0 0 0 0 0 0 0 0 0 0 0 0 0 0 0 0 0 0 0 0 0 0
0 0 0 0 0 0 0 0 0 0 0 0 0 0 0 0 0 0 0 0 0 0 0 0 0 0 0 0 0 0 0 0 0 0 0 0 0 0
0 0 0 0 0 0 0 0 0 0 0 0 0 0 0 0 0 0 0 0 0 0 0 0 0 0 0 0 0 0 0 0 0 0 0 0 0 0
0 0 0 0 0 0 0 0 0 0 0 0 0 0 0 0 0 0 0 0 0 0 0 0 0 0 0 0 0 0 0 0 0 0 0 0 0 0
0 0 0 0 0 0 0 0 0 0 0 -0 -0 0 0 0 0 0 0 0 0 0 0 0 0 0 0 0 0 0 0 0 0 0 0 0 -0 -0
0 0 0 0 0 0 0 0 0 0 0 -0 -0 0 0 0 0 0 -0 -0 0 0 0 0 0 0 0 0 0 0 0 0 0 0 0 0 -0 -0
0 0 0 0 0 0 0 0 0 0 0 0 0 0 0 0 0 0 0 0 0 0 0 0 0 0 0 0 0 0 0 0 0 0 0 0 0 0
0 0 0 0 0 0 0 0 0 0 0 0 0 0 0 0 0 0 0 0 0 0 0 0 0 0 0 0 0 0 0 0 0 0 0 0 0 0
0 0 0 0 0 -0 0 0 0 0 0 0 0 0 0 0 0 0 0 0 0 0 0 0 0 0 0 0 0 0 0 0 0 0 0 0 0 0
0 0 0 0 0 0 0 0 0 0 0 0 0 0 0 0 0 0 0 0 0 0 0 0 0 0 0 0 0 0 0 0 0 0 0 0 0 0
0 0 0 0 0 0 0 0 0 0 0 0 0 0 0 0 0 0 0 0 0 0 0 0 0 0 0 0 0 0 0 0 0 0 0 0 0 0
0 0 0 0 0 0 0 0 0 0 0 0 0 0 0 0 0 0 0 0 0 0 0 0 0 0 0 0 0 0 0 0 0 0 0 0 0 0
0 0 0 0 0 0 0 0 0 0 0 0 0 0 0 0 0 0 0 0 0 0 0 0 0 0 0 0 0 0 0 0 0 0 0 0 0 0
0 0 0 0 0 0 0 0 0 0 0 0 0 0 0 0 -0 -0 -0 0 0 0 0 0 0 0 0 0 0 0 0 0 0 0 0 0 0 0
0 0 0 0 0 0 0 0 0 0 0 0 0 0 0 -0 -0 -0 -0 0 0 0 0 0 0 0 0 0 0 0 0 0 0 0 0 0 0 0
0 0 0 0 0 0 0 0 0 0 0 0 0 0 0 0 -0 -0 -0 0 0 0 0 0 0 0 0 0 0 0 0 0 0 0 0 0 0 0
0 0 0 0 0 0 0 0 0 0 0 0 0 0 0 0 0 0 0 0 0 0 0 0 0 0 0 0 0 0 0 0 0 0 0 0 0 0
0 0 0 0 0 0 0 0 0 0 0 0 0 0 0 0 0 0 0 0 0 0 0 0 0 0 0 0 0 0 0 0 0 0 0 0 0 0
0 0 0 0 0 0 0 0 0 0 0 0 0 0 0 0 0 0 0 0 0 0 0 0 0 0 0 0 0 0 0 0 0 0 0 0 0 0
0 0 0 0 0 0 0 0 0 0 0 0 0 0 0 0 0 0 0 0 0 0 0 0 0 0 0 0 0 0 0 0 0 0 0 0 0 0
Wind_Speed
10 10 9 9 9 9 9 11 13 14 14 14 12 10 9 9 8 10 12 10 9 10 12 13 14 15 16 16 17 16 16 15 14 13 13 15 18 21
10 12 12 11 10 10 10 11 12 13 15 14 12 13 13 11 11 13 13 11 11 14 14 12 13 15 16 17 18 18 17 16 15 15 15 15 15 16
14 15 15 15 13 12 12 12 12 12 14 14 13 12 14 14 12 13 12 10 9 14 12 11 12 12 11 10 10 12 13 14 15 16 16 16 16 16
16 16 17 14 15 14 13 15 14 14 15 16 13 13 14 14 13 12 11 10 9 5 5 9 11 11 10 9 8 8 8 10 12 14 16 17 17 17
16 16 16 17 17 15 16 16 14 13 13 13 13 11 11 11 12 12 12 10 10 7 5 10 11 11 11 10 10 10 9 11 13 15 17 18 18 18
15 15 16 17 16 16 15 16 15 14 13 12 12 11 10 11 10 10 11 9 7 6 6 7 9 10 13 13 13 13 13 14 16 18 19 19 19 18
16 16 17 19 21 17 14 15 15 13 11 11 11 11 11 10 10 9 9 9 8 5 6 7 6 7 9 14 16 15 15 17 19 20 21 21 20 20
15 15 15 17 19 18 18 20 19 17 15 13 12 13 14 13 10 7 7 9 6 5 5 5 5 6 7 7 4 8 16 20 24 26 26 24 23 22
14 13 12 12 15 14 14 16 17 18 18 16 16 16 16 14 11 10 9 9 7 4 4 4 5 7 6 4 6 15 20 24 28 30 31 29 27 24
13 13 13 14 13 14 14 14 14 14 15 14 14 15 15 14 12 11 10 6 2 2 3 3 3 5 5 6 9 17 22 25 26 28 30 30 27 23
13 13 13 13 13 14 14 13 14 14 15 16 16 17 19 21 16 8 6 4 3 3 2 2 2 3 5 6 8 17 21 20 17 19 24 26 25 21
12 13 14 13 14 15 13 12 14 13 11 9 9 8 7 4 1 4 3 2 1 1 3 2 2 2 4 3 6 9 11 14 11 10 20 25 25 15
11 10 9 12 14 14 13 11 12 12 10 7 4 3 4 5 6 6 5 3 1 1 1 2 1 1 2 4 4 7 9 9 8 13 19 22 18 12
11 9 10 15 17 15 11 9 12 9 2 1 3 4 4 5 6 7 8 7 7 6 4 2 1 2 2 3 3 5 8 10 9 10 12 18 19 20
10 16 17 16 15 10 10 9 5 2 3 4 4 4 4 5 5 6 8 9 10 9 8 8 6 4 4 4 4 5 5 9 10 12 13 13 11 12
10 12 13 13 10 9 8 7 6 6 5 4 4 4 5 5 6 6 6 6 7 8 10 11 10 9 8 10 8 9 9 7 9 12 13 14 12 11
11 8 7 8 8 8 7 7 7 6 6 5 5 6 6 6 6 7 7 7 7 7 8 8 11 12 14 11 9 10 10 10 10 10 13 15 13 12
9 8 8 7 8 8 7 7 7 7 6 6 6 6 6 6 6 7 8 7 7 7 6 6 6 8 11 13 16 11 11 10 9 11 12 14 14 12
7 8 8 8 7 7 7 7 7 7 6 6 6 6 6 5 5 6 6 6 7 8 9 8 8 10 13 12 12 13 11 10 10 12 12 13 14 12
8 8 8 8 7 6 6 6 6 6 6 6 6 6 5 4 5 7 7 8 8 10 10 12 12 12 12 12 10 11 13 11 11 13 13 13 15 18
8 8 8 8 7 6 6 5 6 6 6 6 6 6 3 3 6 9 9 10 11 11 12 12 10 11 11 11 12 13 13 15 13 10 12 12 13 12
8 8 7 7 7 7 6 5 5 5 6 5 5 4 3 4 7 9 8 9 10 10 11 9 9 9 11 12 13 14 13 13 16 20 17 10 8 10
9 8 7 7 7 7 6 6 7 5 4 4 4 5 5 6 7 8 8 9 9 10 10 10 9 9 10 11 12 12 16 15 13 14 17 24 31 29
Wind_Direction
290 293 290 293 290 294 299 298 298 296 290 291 289 292 294 290 288 277 276 270 254 262 271 276 279 281 279 275 268 263 261 261 263 265 269 261 245 234
283 287 288 288 297 296 291 287 284 282 283 284 286 287 287 291 287 281 277 273 250 250 253 260 270 275 279 276 264 254 250 251 253 254 256 257 252 244
284 285 287 291 294 299 295 289 284 280 278 279 275 276 278 283 287 287 286 279 268 244 238 253 260 265 275 284 277 259 253 254 253 250 248 249 250 249
288 291 292 293 295 296 294 290 287 281 276 276 276 275 278 281 278 276 277 279 285 289 247 248 248 251 261 269 272 271 271 272 270 266 259 250 244 244
295 294 293 295 295 294 293 291 289 284 280 280 280 278 275 274 277 280 287 288 292 297 249 234 237 244 251 255 254 255 257 260 262 263 263 261 254 247
298 295 293 295 296 294 292 290 286 283 282 284 284 284 281 280 282 291 292 291 297 282 250 238 236 243 248 247 247 249 251 252 253 253 252 253 254 254
304 301 301 301 298 290 285 288 289 286 286 284 283 281 280 281 283 291 288 294 282 238 227 228 227 239 240 233 233 241 255 259 257 252 246 241 240 242
306 305 302 297 294 292 284 278 276 280 284 288 289 286 286 285 288 284 280 278 263 210 219 229 222 249 252 255 285 293 279 271 264 257 247 237 230 228
307 303 299 297 297 292 289 285 278 273 275 282 281 279 281 282 284 277 267 265 258 186 192 232 228 252 262 275 299 291 284 278 268 255 243 231 221 216
306 304 300 298 296 297 296 291 286 282 276 273 274 278 281 280 270 264 267 266 225 165 190 241 245 264 288 294 295 300 297 289 272 249 231 219 206 199
311 304 297 292 290 288 289 285 281 277 268 260 266 275 277 271 258 244 226 216 215 177 167 256 283 291 286 288 308 311 310 309 287 237 209 193 180 176
313 308 302 296 294 291 290 286 283 286 295 300 293 294 306 334 202 197 200 201 189 169 165 225 261 282 287 293 314 326 329 342 14 120 145 148 150 163
311 315 318 322 313 302 291 282 282 292 296 293 301 341 12 38 54 61 58 49 40 59 117 222 275 266 287 297 312 348 0 6 36 80 104 125 145 166
313 319 329 329 323 315 304 293 293 291 272 22 45 37 42 57 63 67 69 66 62 59 44 35 357 348 327 330 345 351 12 21 40 67 85 89 87 82
318 323 330 331 332 330 339 347 350 26 70 72 65 55 53 67 77 81 81 75 64 55 50 48 48 35 30 32 21 7 15 25 39 57 63 64 67 79
325 326 330 334 343 349 1 19 33 44 60 70 71 69 70 66 59 58 66 69 70 64 56 51 50 50 58 54 52 46 41 41 43 60 69 66 62 66
322 335 351 354 3 9 19 27 33 41 51 54 65 71 68 63 58 61 69 71 71 71 68 63 61 61 57 53 54 51 54 53 51 63 76 74 63 64
339 357 358 1 3 12 24 32 39 44 48 53 59 64 63 67 75 77 78 77 78 76 74 75 77 78 74 56 39 55 59 59 58 63 71 78 72 62
2 0 359 1 6 16 29 34 39 43 48 52 61 66 65 75 87 88 83 78 79 75 66 63 64 68 74 72 50 41 61 65 67 68 67 73 75 70
4 358 354 356 6 21 30 34 40 44 46 51 67 72 67 59 61 75 79 82 83 85 79 72 69 66 70 79 81 66 54 67 74 79 81 82 85 88
358 356 353 353 359 14 28 44 51 47 51 57 68 81 83 61 77 82 82 80 83 86 84 82 92 102 97 92 85 79 70 64 73 89 103 103 102 101
357 355 354 355 355 5 26 48 63 57 48 51 61 75 78 73 83 89 92 91 92 95 96 96 97 94 89 90 90 91 91 90 78 67 58 77 112 117
354 353 356 357 359 4 23 44 54 48 38 38 46 56 68 74 78 82 87 88 93 100 103 105 102 95 91 91 94 95 94 90 84 77 69 70 79 88